User: anonymous   Login
Location: Presov
(49.0000°N, 21.2500°E)
Time: 17:45:56
(UTC+02:00)
Language:

Tiros 1 - Orbit

View from above orbital plane
View from above orbital plane
View from above satellite
View from above satellite

Ground track
Ground track

The orbit data is extracted from the following two-line orbital elements,

1 00029U 60002B   21112.83732683 -.00000036  00000-0  25675-4 0  9995
2 00029  48.3795 288.4743 0023679 116.7046 243.6293 14.74422102264195
Epoch (UTC): 22 April 2021 20:05:45
Eccentricity: 0.0023679
inclination: 48.3795°
perigee height: 630 km
apogee height: 663 km
right ascension of ascending node: 288.4743°
argument of perigee: 116.7046°
revolutions per day: 14.74422102
mean anomaly at epoch: 243.6293°
orbit number at epoch: 26419

The dashed part of the orbit path shows where the satellite is in the earth's shadow,  

DLR